Find Connecta T4.1

NORAD ID: 60472 Int'l Des: 2024-149 Owner: PLNSST Country: TR Constellation: plan-s operational
LEOCIRCULARRETROGRADESSO

当前视图

正在加载3D地球...

关于 Connecta T4.1

正在加载描述...

即将过境

Passes for default location (London). Set your location on the main map for personalized predictions.

高度历史

Loading altitude history...

两行轨道根数

1 60472U 24149E 26144.18720889 .00003336 00000-0 14347-3 0 9996
2 60472 97.3756 220.8872 0002498 45.4740 314.6700 15.23325059 98142
Epoch: May 24, 2026 • Age: 21 hours

当前状态

高度 503.8 km
速度 7.62 km/s
星下点 57.10°N, 50.98°W
发射日期 Aug 16, 2024
运行时间 1.7 years
类型 other

技术详情

分类 Payload
质量 10.00 kg
干质量 10.00 kg
总质量 10.00 kg
长度 0.30 m
直径 0.20 m
跨度 0.30 m
形状 Box
制造商 PLNSST
平台类型 Cubesat 6U
阶段状态 In Orbit
所有者/国家 PLNSST/TR

Most Searched